Tracking 18942 objects as of 18-Jan-2018
HD Live streaming from Space Station
objects crossing your sky now

CZ-2D DEB

Track CZ-2D DEB now!
10-day predictions


NORAD ID: 28742
Int'l Code: 2005-024F
Perigee: 517.9 km
Apogee: 676.3 km
Inclination: 97.7 °
Period: 96.5 minutes
Semi major axis: 6968 km
RCS: 0.0146 m2 (small)
Launch date: July 5, 2005
Source: People's Republic of China (PRC)
Launch site: Jiuquan Satellite Launch Center, China (JSC)

Note: This is SATELLITE DEBRIS
aabbcc
Your satellite tracking list
Your tracking list is empty




NASA's NSSDC Master Catalog

Two Line Element Set (TLE):
1 28742U 05024F   18017.39605217 +.00002273 +00000-0 +20064-3 0  9993
2 28742 097.6991 176.4745 0113600 226.1396 133.0396 14.92560589669027
Source of the keplerian elements: AFSPC